Weather Roundup
Issued by NWS Springfield, MO

Home | Current Version | Previous Version | Text Only | Print | Product List | Glossary On
Versions: 1 2 3 4 5 6 7 8 9 10 11 12 13 14 15 16 17 18 19 20 21 22 23 24 25 26 27 28 29 30 31 32 33 34 35 36 37 38 39 40 41 42 43 44 45 46 47 48 49 50
000
NZUS99 KSGF 260557
HRRSGF

HOURLY WEATHER
NATIONAL WEATHER SERVICE SPRINGFIELD MO
1200 AM CST SUN FEB 26 2017

......SGF CWA......

CITY           SKY/WX    TMP DP  RH WIND       PRES   REMARKS
SPRINGFIELD    CLEAR     25  17  72 S5        30.07F WCI  19
6HR MIN TEMP:  25; 6HR MAX TEMP:  39;

JOPLIN         CLEAR     32  15  49 SE7       30.08F WCI  26
6HR MIN TEMP:  28; 6HR MAX TEMP:  43;

WEST PLAINS    CLEAR     26  17  68 CALM      30.11F
6HR MIN TEMP:  25; 6HR MAX TEMP:  40;

ROLLA          CLEAR     28  12  51 SE9       30.08F WCI  19
6HR MIN TEMP:  23; 6HR MAX TEMP:  35;


......SURROUNDING SGF CWA......

CITY           SKY/WX    TMP DP  RH WIND       PRES   REMARKS
CHANUTE        CLEAR     28  14  55 SE6       30.05S WCI  22
PARSONS        CLEAR     32  15  49 SE3       30.06F
COFFEYVILLE    CLEAR     31  16  54 SE7       30.07F WCI  24
EMPORIA        CLEAR     30  16  56 S14       29.98F WCI  19
HARRISON AR    CLEAR     32  18  56 S6        30.09S WCI  26

......KANSAS AND MISSOURI......

CITY           SKY/WX    TMP DP  RH WIND       PRES   REMARKS
KANSAS CTY INT CLEAR     31  14  49 S12       29.98F WCI  22
SEDALIA        CLOUDY    31  15  52 S10       30.06F WCI  22
ST JOSEPH      CLOUDY    33  17  51 S9        29.98F WCI  25
ST LOUIS       CLEAR     31  16  54 CALM      30.13S
WICHITA        PTCLDY    30  20  66 SE8       29.98F WCI  22
TOPEKA         CLEAR     33  16  49 VRB6      29.98F WCI  28
OLATHE         CLEAR     31  13  47 S7        30.00F WCI  24

......TENNESSEE......

CITY           SKY/WX    TMP DP  RH WIND       PRES   REMARKS
MEMPHIS        NOT AVBL
NASHVILLE      CLEAR     35  19  52 W3        30.16S

......ARKANSAS.......

CITY           SKY/WX    TMP DP  RH WIND       PRES   REMARKS
FAYETTEVILLE   CLEAR     25  19  78 CALM      30.09F
FT SMITH       CLEAR     34  25  69 CALM      30.11F
LITTLE ROCK    PTCLDY    36  30  79 CALM      30.15S

......OKLAHOMA.......

CITY           SKY/WX    TMP DP  RH WIND       PRES   REMARKS
TULSA          PTCLDY    35  17  47 SE6       30.06F WCI  30
PONCA CITY     CLEAR     36  18  48 SE10      30.01F WCI  28
MCALESTER      PTCLDY    34  23  64 CALM      30.09F
OKLAHOMA CITY  PTCLDY    34  20  56 SE10      30.00F WCI  26

......IOWA............

CITY           SKY/WX    TMP DP  RH WIND       PRES   REMARKS
DES MOINES     NOT AVBL
QUAD CITIES    CLOUDY    28  18  66 S7        30.05F WCI  21

......ILLINOIS........

CITY           SKY/WX    TMP DP  RH WIND       PRES   REMARKS
QUINCY         NOT AVBL
CHICAGO        CLOUDY    26  15  63 W9        30.04R WCI  17



USA.gov is the U.S. government's official web portal to all federal, state and local government web resources and services.